Year,Month,Day,Hour,Minute,Value (Times are PST for windspeed in km/hr)
2022,12,09,00,00,1.40
2022,12,09,00,01,0.00
2022,12,09,00,02,0.10
2022,12,09,00,03,0.50
2022,12,09,00,04,0.00
2022,12,09,00,05,2.00
2022,12,09,00,06,3.50
2022,12,09,00,07,5.10
2022,12,09,00,08,2.20
2022,12,09,00,09,0.00
2022,12,09,00,10,0.00
2022,12,09,00,11,0.10
2022,12,09,00,12,1.70
2022,12,09,00,13,1.20
2022,12,09,00,14,0.80
2022,12,09,00,15,0.00
2022,12,09,00,16,0.00
2022,12,09,00,17,0.30
2022,12,09,00,18,0.20
2022,12,09,00,19,0.60
2022,12,09,00,20,0.40
2022,12,09,00,21,1.80
2022,12,09,00,22,0.70
2022,12,09,00,23,0.30
2022,12,09,00,24,1.70
2022,12,09,00,25,1.00
2022,12,09,00,26,0.50
2022,12,09,00,27,0.00
2022,12,09,00,28,0.00
2022,12,09,00,29,0.20
2022,12,09,00,30,0.30
2022,12,09,00,31,1.20
2022,12,09,00,32,2.40
2022,12,09,00,33,0.10
2022,12,09,00,34,1.70
2022,12,09,00,35,1.30
2022,12,09,00,36,0.20
2022,12,09,00,37,0.00
2022,12,09,00,38,0.60
2022,12,09,00,39,1.70
2022,12,09,00,40,0.10
2022,12,09,00,41,0.70
2022,12,09,00,42,1.40
2022,12,09,00,43,1.10
2022,12,09,00,44,1.20
2022,12,09,00,45,0.80
2022,12,09,00,46,3.00
2022,12,09,00,47,1.60
2022,12,09,00,48,1.70
2022,12,09,00,49,2.40
2022,12,09,00,50,0.70
2022,12,09,00,51,0.20
2022,12,09,00,52,0.00
2022,12,09,00,53,0.00
2022,12,09,00,54,2.70
2022,12,09,00,55,3.50
2022,12,09,00,56,2.10
2022,12,09,00,57,1.80
2022,12,09,00,58,0.20
2022,12,09,00,59,0.00
2022,12,09,01,00,1.10
2022,12,09,01,01,0.20
2022,12,09,01,02,0.80
2022,12,09,01,03,0.80
2022,12,09,01,04,2.50
2022,12,09,01,05,0.30
2022,12,09,01,06,0.10
2022,12,09,01,07,0.00
2022,12,09,01,08,0.00
2022,12,09,01,09,2.50
2022,12,09,01,10,0.00
2022,12,09,01,11,0.20
2022,12,09,01,12,0.00
2022,12,09,01,13,0.00
2022,12,09,01,14,0.80
2022,12,09,01,15,0.50
2022,12,09,01,16,0.10
2022,12,09,01,17,1.90
2022,12,09,01,18,0.80
2022,12,09,01,19,1.00
2022,12,09,01,20,0.00
2022,12,09,01,21,0.00
2022,12,09,01,22,1.40
2022,12,09,01,23,0.50
2022,12,09,01,24,0.00
2022,12,09,01,25,1.70
2022,12,09,01,26,0.60
2022,12,09,01,27,0.00
2022,12,09,01,28,0.00
2022,12,09,01,29,0.50
2022,12,09,01,30,0.60
2022,12,09,01,31,0.00
2022,12,09,01,32,0.00
2022,12,09,01,33,0.10
2022,12,09,01,34,0.10
2022,12,09,01,35,0.00
2022,12,09,01,36,0.20
2022,12,09,01,37,0.90
2022,12,09,01,38,0.40
2022,12,09,01,39,0.00
2022,12,09,01,40,2.40
2022,12,09,01,41,0.30
2022,12,09,01,42,0.00
2022,12,09,01,43,1.20
2022,12,09,01,44,0.00
2022,12,09,01,45,0.00
2022,12,09,01,46,0.00
2022,12,09,01,47,0.00
2022,12,09,01,48,0.60
2022,12,09,01,49,0.00
2022,12,09,01,50,0.00
2022,12,09,01,51,0.60
2022,12,09,01,52,2.30
2022,12,09,01,53,0.00
2022,12,09,01,54,0.00
2022,12,09,01,55,0.40
2022,12,09,01,56,0.00
2022,12,09,01,57,0.00
2022,12,09,01,58,0.00
2022,12,09,01,59,0.00
2022,12,09,02,00,0.00
2022,12,09,02,01,0.00
2022,12,09,02,02,0.00
2022,12,09,02,03,0.00
2022,12,09,02,04,0.00
2022,12,09,02,05,0.00
2022,12,09,02,06,0.00
2022,12,09,02,07,0.00
2022,12,09,02,08,0.00
2022,12,09,02,09,0.00
2022,12,09,02,10,0.00
2022,12,09,02,11,0.00
2022,12,09,02,12,0.00
2022,12,09,02,13,0.00
2022,12,09,02,14,0.00
2022,12,09,02,15,0.00
2022,12,09,02,16,0.00
2022,12,09,02,17,0.00
2022,12,09,02,18,0.00
2022,12,09,02,19,0.00
2022,12,09,02,20,0.00
2022,12,09,02,21,0.00
2022,12,09,02,22,0.00
2022,12,09,02,23,0.00
2022,12,09,02,24,0.00
2022,12,09,02,25,0.00
2022,12,09,02,26,0.00
2022,12,09,02,27,0.00
2022,12,09,02,28,0.00
2022,12,09,02,29,0.00
2022,12,09,02,30,0.00
2022,12,09,02,31,0.00
2022,12,09,02,32,0.00
2022,12,09,02,33,0.00
2022,12,09,02,34,0.00
2022,12,09,02,35,0.00
2022,12,09,02,36,0.00
2022,12,09,02,37,0.00
2022,12,09,02,38,0.00
2022,12,09,02,39,0.00
2022,12,09,02,40,0.00
2022,12,09,02,41,0.00
2022,12,09,02,42,0.00
2022,12,09,02,43,0.00
2022,12,09,02,44,0.00
2022,12,09,02,45,0.00
2022,12,09,02,46,0.00
2022,12,09,02,47,0.00
2022,12,09,02,48,0.00
2022,12,09,02,49,0.00
2022,12,09,02,50,0.00
2022,12,09,02,51,0.00
2022,12,09,02,52,0.00
2022,12,09,02,53,0.00
2022,12,09,02,54,1.40
2022,12,09,02,55,0.40
2022,12,09,02,56,1.00
2022,12,09,02,57,0.00
2022,12,09,02,58,0.00
2022,12,09,02,59,0.00
2022,12,09,03,00,0.00
2022,12,09,03,01,0.00
2022,12,09,03,02,0.00
2022,12,09,03,03,0.00
2022,12,09,03,04,0.00
2022,12,09,03,05,0.00
2022,12,09,03,06,0.00
2022,12,09,03,07,0.10
2022,12,09,03,08,0.20
2022,12,09,03,09,0.20
2022,12,09,03,10,0.10
2022,12,09,03,11,0.10
2022,12,09,03,12,0.00
2022,12,09,03,13,0.00
2022,12,09,03,14,0.90
2022,12,09,03,15,0.50
2022,12,09,03,16,0.00
2022,12,09,03,17,0.40
2022,12,09,03,18,0.60
2022,12,09,03,19,0.20
2022,12,09,03,20,0.00
2022,12,09,03,21,0.20
2022,12,09,03,22,0.00
2022,12,09,03,23,0.50
2022,12,09,03,24,1.30
2022,12,09,03,25,0.20
2022,12,09,03,26,0.00
2022,12,09,03,27,0.00
2022,12,09,03,28,0.00
2022,12,09,03,29,0.00
2022,12,09,03,30,0.00
2022,12,09,03,31,0.00
2022,12,09,03,32,0.00
2022,12,09,03,33,0.00
2022,12,09,03,34,0.00
2022,12,09,03,35,0.00
2022,12,09,03,36,0.00
2022,12,09,03,37,0.00
2022,12,09,03,38,0.00
2022,12,09,03,39,0.00
2022,12,09,03,40,0.00
2022,12,09,03,41,0.00
2022,12,09,03,42,0.00
2022,12,09,03,43,0.00
2022,12,09,03,44,0.00
2022,12,09,03,45,0.10
2022,12,09,03,46,0.00
2022,12,09,03,47,0.00
2022,12,09,03,48,0.00
2022,12,09,03,49,0.40
2022,12,09,03,50,0.00
2022,12,09,03,51,0.00
2022,12,09,03,52,0.00
2022,12,09,03,53,0.00
2022,12,09,03,54,0.00
2022,12,09,03,55,0.00
2022,12,09,03,56,0.00
2022,12,09,03,57,0.00
2022,12,09,03,58,0.00
2022,12,09,03,59,0.00
2022,12,09,04,00,0.00
2022,12,09,04,01,0.00
2022,12,09,04,02,0.00
2022,12,09,04,03,0.00
2022,12,09,04,04,0.00
2022,12,09,04,05,0.00
2022,12,09,04,06,0.00
2022,12,09,04,07,0.00
2022,12,09,04,08,0.00
2022,12,09,04,09,0.00
2022,12,09,04,10,0.00
2022,12,09,04,11,0.00
2022,12,09,04,12,0.00
2022,12,09,04,13,0.30
2022,12,09,04,14,1.60
2022,12,09,04,15,0.90
2022,12,09,04,16,0.00
2022,12,09,04,17,0.00
2022,12,09,04,18,0.00
2022,12,09,04,19,0.00
2022,12,09,04,20,0.00
2022,12,09,04,21,0.00
2022,12,09,04,22,0.00
2022,12,09,04,23,0.00
2022,12,09,04,24,0.00
2022,12,09,04,25,0.00
2022,12,09,04,26,0.00
2022,12,09,04,27,0.00
2022,12,09,04,28,0.80
2022,12,09,04,29,3.10
2022,12,09,04,30,2.70
2022,12,09,04,31,1.40
2022,12,09,04,32,0.10
2022,12,09,04,33,0.40
2022,12,09,04,34,1.80
2022,12,09,04,35,1.30
2022,12,09,04,36,0.30
2022,12,09,04,37,0.10
2022,12,09,04,38,0.00
2022,12,09,04,39,0.40
2022,12,09,04,40,0.20
2022,12,09,04,41,0.50
2022,12,09,04,42,0.20
2022,12,09,04,43,1.00
2022,12,09,04,44,0.20
2022,12,09,04,45,0.50
2022,12,09,04,46,0.80
2022,12,09,04,47,0.80
2022,12,09,04,48,0.20
2022,12,09,04,49,0.50
2022,12,09,04,50,0.20
2022,12,09,04,51,0.20
2022,12,09,04,52,1.00
2022,12,09,04,53,0.70
2022,12,09,04,54,0.60
2022,12,09,04,55,0.20
2022,12,09,04,56,1.50
2022,12,09,04,57,1.00
2022,12,09,04,58,0.30
2022,12,09,04,59,0.50
2022,12,09,05,00,0.90
2022,12,09,05,01,0.30
2022,12,09,05,02,0.60
2022,12,09,05,03,1.10
2022,12,09,05,04,0.40
2022,12,09,05,05,0.10
2022,12,09,05,06,0.40
2022,12,09,05,07,1.30
2022,12,09,05,08,1.50
2022,12,09,05,09,0.40
2022,12,09,05,10,0.20
2022,12,09,05,11,0.90
2022,12,09,05,12,0.00
2022,12,09,05,13,0.90
2022,12,09,05,14,0.70
2022,12,09,05,15,1.00
2022,12,09,05,16,0.60
2022,12,09,05,17,0.20
2022,12,09,05,18,2.50
2022,12,09,05,19,0.40
2022,12,09,05,20,0.60
2022,12,09,05,21,0.70
2022,12,09,05,22,0.10
2022,12,09,05,23,0.00
2022,12,09,05,24,0.00
2022,12,09,05,25,0.20
2022,12,09,05,26,0.60
2022,12,09,05,27,0.60
2022,12,09,05,28,1.60
2022,12,09,05,29,1.20
2022,12,09,05,30,1.80
2022,12,09,05,31,0.60
2022,12,09,05,32,0.80
2022,12,09,05,33,0.50
2022,12,09,05,34,0.40
2022,12,09,05,35,0.60
2022,12,09,05,36,1.10
2022,12,09,05,37,1.50
2022,12,09,05,38,1.80
2022,12,09,05,39,2.80
2022,12,09,05,40,1.20
2022,12,09,05,41,0.60
2022,12,09,05,42,0.10
2022,12,09,05,43,0.00
2022,12,09,05,44,3.10
2022,12,09,05,45,1.00
2022,12,09,05,46,0.20
2022,12,09,05,47,0.00
2022,12,09,05,48,0.60
2022,12,09,05,49,0.30
2022,12,09,05,50,0.00
2022,12,09,05,51,0.00
2022,12,09,05,52,0.00
2022,12,09,05,53,0.00
2022,12,09,05,54,0.10
2022,12,09,05,55,0.00
2022,12,09,05,56,0.00
2022,12,09,05,57,0.00
2022,12,09,05,58,0.00
2022,12,09,05,59,0.00
2022,12,09,06,00,0.00
2022,12,09,06,01,0.00
2022,12,09,06,02,0.00
2022,12,09,06,03,0.00
2022,12,09,06,04,0.00
2022,12,09,06,05,0.50
2022,12,09,06,06,1.30
2022,12,09,06,07,0.40
2022,12,09,06,08,1.00
2022,12,09,06,09,1.40
2022,12,09,06,10,1.50
2022,12,09,06,11,0.30
2022,12,09,06,12,0.20
2022,12,09,06,13,0.00
2022,12,09,06,14,0.00
2022,12,09,06,15,0.10
2022,12,09,06,16,0.40
2022,12,09,06,17,0.00
2022,12,09,06,18,0.00
2022,12,09,06,19,0.40
2022,12,09,06,20,0.60
2022,12,09,06,21,0.00
2022,12,09,06,22,0.00
2022,12,09,06,23,0.00
2022,12,09,06,24,0.00
2022,12,09,06,25,0.00
2022,12,09,06,26,0.00
2022,12,09,06,27,0.00
2022,12,09,06,28,0.00
2022,12,09,06,29,0.00
2022,12,09,06,30,0.00
2022,12,09,06,31,0.00
2022,12,09,06,32,0.00
2022,12,09,06,33,0.00
2022,12,09,06,34,0.00
2022,12,09,06,35,0.00
2022,12,09,06,36,0.00
2022,12,09,06,37,0.00
2022,12,09,06,38,0.70
2022,12,09,06,39,0.00
2022,12,09,06,40,0.80
2022,12,09,06,41,0.00
2022,12,09,06,42,0.00
2022,12,09,06,43,0.10
2022,12,09,06,44,0.30
2022,12,09,06,45,0.10
2022,12,09,06,46,0.20
2022,12,09,06,47,0.00
2022,12,09,06,48,0.00
2022,12,09,06,49,0.00
2022,12,09,06,50,0.00
2022,12,09,06,51,0.00
2022,12,09,06,52,0.00
2022,12,09,06,53,0.00
2022,12,09,06,54,0.00
2022,12,09,06,55,0.00
2022,12,09,06,56,0.00
2022,12,09,06,57,0.00
2022,12,09,06,58,0.00
2022,12,09,06,59,0.00
2022,12,09,07,00,0.00
2022,12,09,07,01,0.00
2022,12,09,07,02,0.00
2022,12,09,07,03,0.00
2022,12,09,07,04,0.00
2022,12,09,07,05,0.00
2022,12,09,07,06,0.00
2022,12,09,07,07,0.00
2022,12,09,07,08,0.00
2022,12,09,07,09,0.00
2022,12,09,07,10,0.00
2022,12,09,07,11,0.00
2022,12,09,07,12,0.00
2022,12,09,07,13,0.00
2022,12,09,07,14,0.10
2022,12,09,07,15,0.00
2022,12,09,07,16,0.00
2022,12,09,07,17,0.00
2022,12,09,07,18,0.00
2022,12,09,07,19,0.00
2022,12,09,07,20,0.00
2022,12,09,07,21,0.00
2022,12,09,07,22,0.00
2022,12,09,07,23,0.00
2022,12,09,07,24,0.00
2022,12,09,07,25,0.00
2022,12,09,07,26,0.00
2022,12,09,07,27,0.00
2022,12,09,07,28,0.00
2022,12,09,07,29,0.00
2022,12,09,07,30,0.00
2022,12,09,07,31,0.00
2022,12,09,07,32,0.00
2022,12,09,07,33,0.10
2022,12,09,07,34,0.00
2022,12,09,07,35,0.00
2022,12,09,07,36,0.00
2022,12,09,07,37,0.00
2022,12,09,07,38,0.00
2022,12,09,07,39,0.00
2022,12,09,07,40,0.00
2022,12,09,07,41,0.00
2022,12,09,07,42,0.00
2022,12,09,07,43,0.00
2022,12,09,07,44,0.00
2022,12,09,07,45,0.00
2022,12,09,07,46,0.00
2022,12,09,07,47,0.00
2022,12,09,07,48,0.00
2022,12,09,07,49,0.20
2022,12,09,07,50,0.00
2022,12,09,07,51,0.00
2022,12,09,07,52,0.00
2022,12,09,07,53,0.20
2022,12,09,07,54,0.00
2022,12,09,07,55,0.00
2022,12,09,07,56,0.00
2022,12,09,07,57,0.00
2022,12,09,07,58,0.00
2022,12,09,07,59,0.00
2022,12,09,08,00,0.00
2022,12,09,08,01,0.00
2022,12,09,08,02,0.00
2022,12,09,08,03,0.00
2022,12,09,08,04,0.00
2022,12,09,08,05,1.00
2022,12,09,08,06,0.20
2022,12,09,08,07,0.40
2022,12,09,08,08,0.00
2022,12,09,08,09,0.10
2022,12,09,08,10,0.60
2022,12,09,08,11,0.30
2022,12,09,08,12,1.00
2022,12,09,08,13,1.50
2022,12,09,08,14,1.20
2022,12,09,08,15,0.30
2022,12,09,08,16,1.20
2022,12,09,08,17,0.30
2022,12,09,08,18,1.30
2022,12,09,08,19,1.20
2022,12,09,08,20,0.60
2022,12,09,08,21,1.50
2022,12,09,08,22,1.50
2022,12,09,08,23,1.20
2022,12,09,08,24,0.40
2022,12,09,08,25,1.30
2022,12,09,08,26,0.40
2022,12,09,08,27,0.40
2022,12,09,08,28,0.40
2022,12,09,08,29,0.80
2022,12,09,08,30,1.50
2022,12,09,08,31,2.00
2022,12,09,08,32,1.50
2022,12,09,08,33,0.20
2022,12,09,08,34,0.00
2022,12,09,08,35,0.00
2022,12,09,08,36,0.00
2022,12,09,08,37,0.30
2022,12,09,08,38,0.20
2022,12,09,08,39,0.00
2022,12,09,08,40,0.00
2022,12,09,08,41,0.00
2022,12,09,08,42,0.00
2022,12,09,08,43,0.20
2022,12,09,08,44,0.00
2022,12,09,08,45,0.30
2022,12,09,08,46,0.00
2022,12,09,08,47,0.00
2022,12,09,08,48,0.00
2022,12,09,08,49,0.00
2022,12,09,08,50,0.20
2022,12,09,08,51,0.30
2022,12,09,08,52,0.20
2022,12,09,08,53,0.90
2022,12,09,08,54,1.40
2022,12,09,08,55,0.50
2022,12,09,08,56,0.10
2022,12,09,08,57,0.10
2022,12,09,08,58,0.30
2022,12,09,08,59,1.00
2022,12,09,09,00,0.80
2022,12,09,09,01,0.20
2022,12,09,09,02,1.00
2022,12,09,09,03,0.40
2022,12,09,09,04,1.10
2022,12,09,09,05,0.20
2022,12,09,09,06,0.90
2022,12,09,09,07,2.00
2022,12,09,09,08,4.70
2022,12,09,09,09,3.10
2022,12,09,09,10,2.30
2022,12,09,09,11,2.30
2022,12,09,09,12,2.30
2022,12,09,09,13,2.60
2022,12,09,09,14,1.00
2022,12,09,09,15,0.50
2022,12,09,09,16,0.40
2022,12,09,09,17,1.70
2022,12,09,09,18,1.40
2022,12,09,09,19,0.30
2022,12,09,09,20,0.90
2022,12,09,09,21,0.50
2022,12,09,09,22,3.10
2022,12,09,09,23,1.30
2022,12,09,09,24,2.80
2022,12,09,09,25,4.20
2022,12,09,09,26,3.00
2022,12,09,09,27,2.90
2022,12,09,09,28,2.60
2022,12,09,09,29,4.80
2022,12,09,09,30,3.30
2022,12,09,09,31,4.10
2022,12,09,09,32,4.20
2022,12,09,09,33,3.60
2022,12,09,09,34,1.70
2022,12,09,09,35,2.70
2022,12,09,09,36,2.80
2022,12,09,09,37,0.50
2022,12,09,09,38,4.50
2022,12,09,09,39,3.20
2022,12,09,09,40,1.90
2022,12,09,09,41,2.10
2022,12,09,09,42,1.50
2022,12,09,09,43,2.60
2022,12,09,09,44,2.80
2022,12,09,09,45,4.30
2022,12,09,09,46,3.90
2022,12,09,09,47,4.60
2022,12,09,09,48,2.20
2022,12,09,09,49,6.20
2022,12,09,09,50,2.20
2022,12,09,09,51,5.10
2022,12,09,09,52,2.20
2022,12,09,09,53,3.20
2022,12,09,09,54,2.90
2022,12,09,09,55,8.80
2022,12,09,09,56,6.60
2022,12,09,09,57,4.40
2022,12,09,09,58,3.90
2022,12,09,09,59,5.30
2022,12,09,10,00,6.90
2022,12,09,10,01,6.00
2022,12,09,10,02,5.60
2022,12,09,10,03,3.50
2022,12,09,10,04,2.50
2022,12,09,10,05,3.90
2022,12,09,10,06,6.80
2022,12,09,10,07,5.90
2022,12,09,10,08,3.50
2022,12,09,10,09,6.60
2022,12,09,10,10,4.30
2022,12,09,10,11,9.40
2022,12,09,10,12,7.30
2022,12,09,10,13,5.80
2022,12,09,10,14,7.20
2022,12,09,10,15,10.40
2022,12,09,10,16,6.50
2022,12,09,10,17,7.00
2022,12,09,10,18,4.50
2022,12,09,10,19,3.80
2022,12,09,10,20,7.70
2022,12,09,10,21,5.00
2022,12,09,10,22,2.90
2022,12,09,10,23,5.70
2022,12,09,10,24,8.00
2022,12,09,10,25,8.30
2022,12,09,10,26,7.70
2022,12,09,10,27,5.20
2022,12,09,10,28,9.20
2022,12,09,10,29,7.70
2022,12,09,10,30,8.40
2022,12,09,10,31,5.10
2022,12,09,10,32,2.30
2022,12,09,10,33,0.30
2022,12,09,10,34,2.90
2022,12,09,10,35,9.40
2022,12,09,10,36,9.70
2022,12,09,10,37,5.30
2022,12,09,10,38,6.40
2022,12,09,10,39,4.70
2022,12,09,10,40,8.00
2022,12,09,10,41,4.70
2022,12,09,10,42,2.70
2022,12,09,10,43,2.60
2022,12,09,10,44,7.90
2022,12,09,10,45,8.10
2022,12,09,10,46,7.40
2022,12,09,10,47,2.20
2022,12,09,10,48,5.10
2022,12,09,10,49,5.90
2022,12,09,10,50,8.30
2022,12,09,10,51,4.70
2022,12,09,10,52,4.50
2022,12,09,10,53,6.90
2022,12,09,10,54,8.40
2022,12,09,10,55,8.50
2022,12,09,10,56,4.40
2022,12,09,10,57,3.50
2022,12,09,10,58,1.10
2022,12,09,10,59,2.80
2022,12,09,11,00,7.50
2022,12,09,11,01,6.60
2022,12,09,11,02,9.20
2022,12,09,11,03,12.80
2022,12,09,11,04,9.40
2022,12,09,11,05,7.60
2022,12,09,11,06,8.40
2022,12,09,11,07,6.30
2022,12,09,11,08,5.60
2022,12,09,11,09,7.80
2022,12,09,11,10,12.00
2022,12,09,11,11,8.60
2022,12,09,11,12,4.40
2022,12,09,11,13,7.90
2022,12,09,11,14,8.00
2022,12,09,11,15,6.50
2022,12,09,11,16,5.50
2022,12,09,11,17,8.90
2022,12,09,11,18,11.40
2022,12,09,11,19,10.90
2022,12,09,11,20,9.50
2022,12,09,11,21,8.40
2022,12,09,11,22,8.20
2022,12,09,11,23,5.30
2022,12,09,11,24,4.10
2022,12,09,11,25,4.60
2022,12,09,11,26,6.30
2022,12,09,11,27,10.20
2022,12,09,11,28,9.20
2022,12,09,11,29,7.20
2022,12,09,11,30,5.10
2022,12,09,11,31,7.00
2022,12,09,11,32,10.60
2022,12,09,11,33,8.50
2022,12,09,11,34,8.70
2022,12,09,11,35,6.50
2022,12,09,11,36,9.90
2022,12,09,11,37,12.40
2022,12,09,11,38,10.30
2022,12,09,11,39,5.90
2022,12,09,11,40,11.90
2022,12,09,11,41,9.50
2022,12,09,11,42,8.70
2022,12,09,11,43,8.80
2022,12,09,11,44,6.50
2022,12,09,11,45,7.80
2022,12,09,11,46,12.70
2022,12,09,11,47,11.70
2022,12,09,11,48,7.60
2022,12,09,11,49,11.10
2022,12,09,11,50,8.10
2022,12,09,11,51,10.30
2022,12,09,11,52,9.70
2022,12,09,11,53,11.40
2022,12,09,11,54,10.70
2022,12,09,11,55,5.60
2022,12,09,11,56,7.70
2022,12,09,11,57,8.90
2022,12,09,11,58,5.40
2022,12,09,11,59,4.80
2022,12,09,12,00,7.50
2022,12,09,12,01,9.10
2022,12,09,12,02,5.10
2022,12,09,12,03,5.40
2022,12,09,12,04,7.00
2022,12,09,12,05,6.90
2022,12,09,12,06,6.30
2022,12,09,12,07,12.70
2022,12,09,12,08,15.50
2022,12,09,12,09,12.70
2022,12,09,12,10,11.50
2022,12,09,12,11,12.60
2022,12,09,12,12,9.20
2022,12,09,12,13,10.20
2022,12,09,12,14,16.80
2022,12,09,12,15,15.70
2022,12,09,12,16,11.00
2022,12,09,12,17,12.90
2022,12,09,12,18,10.50
2022,12,09,12,19,17.70
2022,12,09,12,20,15.20
2022,12,09,12,21,15.40
2022,12,09,12,22,20.00
2022,12,09,12,23,15.60
2022,12,09,12,24,18.10
2022,12,09,12,25,8.50
2022,12,09,12,26,15.90
2022,12,09,12,27,15.10
2022,12,09,12,28,19.10
2022,12,09,12,29,16.20
2022,12,09,12,30,17.80
2022,12,09,12,31,16.60
2022,12,09,12,32,19.00
2022,12,09,12,33,9.00
2022,12,09,12,34,10.40
2022,12,09,12,35,9.10
2022,12,09,12,36,12.80
2022,12,09,12,37,13.50
2022,12,09,12,38,10.60
2022,12,09,12,39,10.00
2022,12,09,12,40,9.40
2022,12,09,12,41,17.00
2022,12,09,12,42,12.60
2022,12,09,12,43,18.10
2022,12,09,12,44,11.30
2022,12,09,12,45,12.20
2022,12,09,12,46,13.90
2022,12,09,12,47,16.30
2022,12,09,12,48,13.40
2022,12,09,12,49,16.50
2022,12,09,12,50,16.70
2022,12,09,12,51,17.00
2022,12,09,12,52,11.00
2022,12,09,12,53,18.90
2022,12,09,12,54,19.80
2022,12,09,12,55,18.30
2022,12,09,12,56,14.60
2022,12,09,12,57,18.10
2022,12,09,12,58,22.70
2022,12,09,12,59,18.50
2022,12,09,13,00,11.70
2022,12,09,13,01,13.00
2022,12,09,13,02,14.30
2022,12,09,13,03,16.40
2022,12,09,13,04,17.30
2022,12,09,13,05,13.60
2022,12,09,13,06,16.40
2022,12,09,13,07,18.60
2022,12,09,13,08,13.30
2022,12,09,13,09,21.00
2022,12,09,13,10,14.10
2022,12,09,13,11,25.00
2022,12,09,13,12,21.20
2022,12,09,13,13,18.70
2022,12,09,13,14,20.00
2022,12,09,13,15,19.80
2022,12,09,13,16,19.20
2022,12,09,13,17,11.40
2022,12,09,13,18,17.50
2022,12,09,13,19,17.20
2022,12,09,13,20,18.30
2022,12,09,13,21,16.50
2022,12,09,13,22,18.00
2022,12,09,13,23,22.20
2022,12,09,13,24,27.10
2022,12,09,13,25,20.40
2022,12,09,13,26,15.20
2022,12,09,13,27,20.00
2022,12,09,13,28,13.60
2022,12,09,13,29,11.00
2022,12,09,13,30,17.20
2022,12,09,13,31,14.40
2022,12,09,13,32,18.40
2022,12,09,13,33,25.70
2022,12,09,13,34,21.20
2022,12,09,13,35,12.60
2022,12,09,13,36,17.20
2022,12,09,13,37,16.70
2022,12,09,13,38,20.80
2022,12,09,13,39,25.30
2022,12,09,13,40,16.50
2022,12,09,13,41,14.00
2022,12,09,13,42,18.80
2022,12,09,13,43,25.70
2022,12,09,13,44,19.50
2022,12,09,13,45,24.40
2022,12,09,13,46,19.20
2022,12,09,13,47,23.70
2022,12,09,13,48,27.60
2022,12,09,13,49,23.80
2022,12,09,13,50,23.10
2022,12,09,13,51,22.80
2022,12,09,13,52,25.00
2022,12,09,13,53,15.90
2022,12,09,13,54,24.20
2022,12,09,13,55,15.70
2022,12,09,13,56,12.20
2022,12,09,13,57,20.80
2022,12,09,13,58,18.80
2022,12,09,13,59,11.90
2022,12,09,14,00,15.20
2022,12,09,14,01,21.40
2022,12,09,14,02,16.30
2022,12,09,14,03,21.80
2022,12,09,14,04,22.90
2022,12,09,14,05,22.20
2022,12,09,14,06,24.20
2022,12,09,14,07,17.40
2022,12,09,14,08,13.60
2022,12,09,14,09,11.70
2022,12,09,14,10,12.70
2022,12,09,14,11,21.10
2022,12,09,14,12,22.20
2022,12,09,14,13,16.50
2022,12,09,14,14,19.50
2022,12,09,14,15,16.50
2022,12,09,14,16,21.50
2022,12,09,14,17,18.00
2022,12,09,14,18,14.70
2022,12,09,14,19,21.80
2022,12,09,14,20,19.10
2022,12,09,14,21,20.80
2022,12,09,14,22,20.40
2022,12,09,14,23,16.10
2022,12,09,14,24,13.50
2022,12,09,14,25,21.60
2022,12,09,14,26,21.40
2022,12,09,14,27,16.90
2022,12,09,14,28,22.10
2022,12,09,14,29,22.40
2022,12,09,14,30,13.10
2022,12,09,14,31,24.50
2022,12,09,14,32,26.40
2022,12,09,14,33,18.20
2022,12,09,14,34,23.20
2022,12,09,14,35,17.70
2022,12,09,14,36,17.70
2022,12,09,14,37,18.60
2022,12,09,14,38,23.80
2022,12,09,14,39,22.80
2022,12,09,14,40,26.60
2022,12,09,14,41,21.80
2022,12,09,14,42,13.00
2022,12,09,14,43,13.00
2022,12,09,14,44,14.90
2022,12,09,14,45,24.90
2022,12,09,14,46,22.40
2022,12,09,14,47,24.10
2022,12,09,14,48,24.50
2022,12,09,14,49,20.60
2022,12,09,14,50,25.50
2022,12,09,14,51,26.20
2022,12,09,14,52,29.50
2022,12,09,14,53,30.90
2022,12,09,14,54,19.00
2022,12,09,14,55,18.60
2022,12,09,14,56,26.40
2022,12,09,14,57,30.20
2022,12,09,14,58,24.10
2022,12,09,14,59,21.20
2022,12,09,15,00,27.30
2022,12,09,15,01,18.50
2022,12,09,15,02,24.10
2022,12,09,15,03,23.80
2022,12,09,15,04,24.00
2022,12,09,15,05,19.60
2022,12,09,15,06,21.40
2022,12,09,15,07,14.80
2022,12,09,15,08,18.50
2022,12,09,15,09,22.60
2022,12,09,15,10,24.30
2022,12,09,15,11,23.20
2022,12,09,15,12,24.90
2022,12,09,15,13,13.20
2022,12,09,15,14,25.50
2022,12,09,15,15,20.10
2022,12,09,15,16,22.90
2022,12,09,15,17,22.00
2022,12,09,15,18,26.40
2022,12,09,15,19,29.50
2022,12,09,15,20,20.40
2022,12,09,15,21,22.50
2022,12,09,15,22,22.50
2022,12,09,15,23,20.20
2022,12,09,15,24,19.10
2022,12,09,15,25,33.90
2022,12,09,15,26,26.10
2022,12,09,15,27,12.50
2022,12,09,15,28,20.50
2022,12,09,15,29,14.30
2022,12,09,15,30,16.30
2022,12,09,15,31,20.60
2022,12,09,15,32,20.70
2022,12,09,15,33,19.50
2022,12,09,15,34,23.40
2022,12,09,15,35,31.90
2022,12,09,15,36,25.10
2022,12,09,15,37,27.50
2022,12,09,15,38,18.50
2022,12,09,15,39,18.40
2022,12,09,15,40,15.30
2022,12,09,15,41,20.50
2022,12,09,15,42,26.40
2022,12,09,15,43,25.70
2022,12,09,15,44,21.70
2022,12,09,15,45,21.40
2022,12,09,15,46,16.60
2022,12,09,15,47,18.60
2022,12,09,15,48,19.90
2022,12,09,15,49,23.90
2022,12,09,15,50,16.70
2022,12,09,15,51,17.60
2022,12,09,15,52,16.70
2022,12,09,15,53,23.10
2022,12,09,15,54,20.30
2022,12,09,15,55,29.10
2022,12,09,15,56,21.50
2022,12,09,15,57,14.80
2022,12,09,15,58,25.20
2022,12,09,15,59,26.30
2022,12,09,16,00,20.60
2022,12,09,16,01,28.00
2022,12,09,16,02,25.70
2022,12,09,16,03,23.80
2022,12,09,16,04,26.20
2022,12,09,16,05,25.50
2022,12,09,16,06,29.40
2022,12,09,16,07,19.90
2022,12,09,16,08,24.40
2022,12,09,16,09,17.20
2022,12,09,16,10,32.00
2022,12,09,16,11,20.80
2022,12,09,16,12,20.40
2022,12,09,16,13,23.20
2022,12,09,16,14,17.50
2022,12,09,16,15,27.20
2022,12,09,16,16,32.30
2022,12,09,16,17,31.80
2022,12,09,16,18,30.60
2022,12,09,16,19,31.30
2022,12,09,16,20,39.00
2022,12,09,16,21,25.40
2022,12,09,16,22,34.20
2022,12,09,16,23,29.60
2022,12,09,16,24,21.20
2022,12,09,16,25,24.10
2022,12,09,16,26,22.10
2022,12,09,16,27,23.80
2022,12,09,16,28,24.80
2022,12,09,16,29,26.40
2022,12,09,16,30,19.80
2022,12,09,16,31,18.80
2022,12,09,16,32,24.90
2022,12,09,16,33,33.80
2022,12,09,16,34,20.60
2022,12,09,16,35,15.10
2022,12,09,16,36,23.60
2022,12,09,16,37,28.30
2022,12,09,16,38,29.60
2022,12,09,16,39,27.70
2022,12,09,16,40,21.10
2022,12,09,16,41,22.80
2022,12,09,16,42,19.30
2022,12,09,16,43,17.70
2022,12,09,16,44,15.20
2022,12,09,16,45,32.30
2022,12,09,16,46,27.10
2022,12,09,16,47,19.80
2022,12,09,16,48,26.40
2022,12,09,16,49,21.60
2022,12,09,16,50,22.10
2022,12,09,16,51,29.00
2022,12,09,16,52,29.70
2022,12,09,16,53,27.70
2022,12,09,16,54,30.10
2022,12,09,16,55,22.90
2022,12,09,16,56,16.60
2022,12,09,16,57,33.60
2022,12,09,16,58,22.10
2022,12,09,16,59,17.40
2022,12,09,17,00,21.70
2022,12,09,17,01,19.50
2022,12,09,17,02,21.50
2022,12,09,17,03,30.30
2022,12,09,17,04,28.90
2022,12,09,17,05,18.20
2022,12,09,17,06,21.80
2022,12,09,17,07,21.90
2022,12,09,17,08,21.70
2022,12,09,17,09,24.90
2022,12,09,17,10,14.60
2022,12,09,17,11,33.00
2022,12,09,17,12,15.10
2022,12,09,17,13,24.10
2022,12,09,17,14,27.10
2022,12,09,17,15,19.00
2022,12,09,17,16,13.80
2022,12,09,17,17,28.40
2022,12,09,17,18,28.50
2022,12,09,17,19,20.80
2022,12,09,17,20,17.80
2022,12,09,17,21,14.90
2022,12,09,17,22,21.80
2022,12,09,17,23,20.50
2022,12,09,17,24,23.10
2022,12,09,17,25,26.40
2022,12,09,17,26,30.30
2022,12,09,17,27,27.90
2022,12,09,17,28,29.00
2022,12,09,17,29,27.90
2022,12,09,17,30,24.50
2022,12,09,17,31,18.10
2022,12,09,17,32,19.90
2022,12,09,17,33,22.50
2022,12,09,17,34,24.10
2022,12,09,17,35,26.80
2022,12,09,17,36,30.70
2022,12,09,17,37,29.20
2022,12,09,17,38,20.00
2022,12,09,17,39,20.70
2022,12,09,17,40,28.10
2022,12,09,17,41,26.90
2022,12,09,17,42,32.30
2022,12,09,17,43,22.10
2022,12,09,17,44,27.10
2022,12,09,17,45,30.20
2022,12,09,17,46,22.90
2022,12,09,17,47,19.60
2022,12,09,17,48,23.30
2022,12,09,17,49,30.20
2022,12,09,17,50,18.30